New Philadelphia, OH

9:05 AM EST on February 22, 2017 (GMT -0500)
Clever

Weather History for KPHD - October, 2012

Change the Weather History Date:

Saturday, October 13, 2012

  Actual Average Record
Temperature  
Mean Temperature 48 °F 53 °F  
Max Temperature 68 °F 66 °F 81 °F (1995)
Min Temperature 28 °F 41 °F 23 °F (1964)
Degree Days  
Heating Degree Days 17 12  
Month to date heating degree days 167 130  
Since 1 July heating degree days 309 236  
Cooling Degree Days 0 0  
Month to date cooling degree days 0 9  
Year to date cooling degree days 975 697  
Moisture  
Dew Point 36 °F    
Average Humidity 66    
Maximum Humidity 92    
Minimum Humidity 39    
Precipitation  
Precipitation T in 0.08 in 1.20 in (1990)
Month to date precipitation 0.81 1.14  
Year to date precipitation 23.93 31.35  
Sea Level Pressure  
Sea Level Pressure 30.29 in    
Wind  
Wind Speed 5 mph (SSE)    
Max Wind Speed 15 mph    
Max Gust Speed 21 mph    
Visibility 10 miles    
Events Rain    
T = Trace of Precipitation, MM = Missing Value Source: NWS Daily Summary

Daily Weather History Graph

Daily Weather History Graph

Search for Another Location

Airport or City:

Trip Planner

Search our weather history database for the weather conditions in past years. The results will help you decide how hot, cold, wet, or windy it might be!

Date:

Astronomy

Oct. 13, 2012 Rise Set
Actual Time 7:34 AM EDT 6:47 PM EDT
Civil Twilight 7:07 AM EDT 7:15 PM EDT
Nautical Twilight 6:35 AM EDT 7:46 PM EDT
Astronomical Twilight 6:04 AM EDT 8:18 PM EDT
Moon 5:22 AM EDT (10/13) 5:31 PM EDT (10/13)
Length of Visible Light 12h 07m
Length of Day
11h 12m
Waning Crescent, 5% of the Moon is Illuminated
Oct 13
Waning Crescent
Oct 15
New
Oct 21
First Quarter
Oct 29
Full
Nov 6
Last Quarter

Hourly Weather History & Observations

Time (EDT) Temp. Windchill Dew Point Humidity Pressure Visibility Wind Dir Wind Speed Gust Speed Precip Events Conditions
12:53 AM 33.1 °F - 30.9 °F 92% 30.43 in 10.0 mi Calm Calm - N/A   Clear
1:53 AM 32.0 °F - 28.9 °F 88% 30.43 in 10.0 mi Calm Calm - N/A   Clear
2:53 AM 30.0 °F - 28.0 °F 92% 30.42 in 10.0 mi Calm Calm - N/A   Clear
3:53 AM 30.9 °F - 28.0 °F 89% 30.39 in 10.0 mi Calm Calm - N/A   Clear
4:53 AM 30.0 °F - 27.0 °F 88% 30.40 in 10.0 mi Calm Calm - N/A   Clear
5:53 AM 30.0 °F - 27.0 °F 88% 30.40 in 10.0 mi Calm Calm - N/A   Clear
6:53 AM 28.9 °F - 26.1 °F 89% 30.39 in 10.0 mi Calm Calm - N/A   Clear
7:53 AM 30.0 °F - 27.0 °F 88% 30.39 in 10.0 mi Calm Calm - N/A   Clear
8:53 AM 37.0 °F 34.5 °F 30.9 °F 79% 30.38 in 10.0 mi SSE 3.5 mph - N/A   Clear
9:53 AM 43.0 °F 39.5 °F 32.0 °F 65% 30.38 in 10.0 mi SSE 5.8 mph - N/A   Clear
10:53 AM 48.9 °F - 34.0 °F 56% 30.35 in 10.0 mi SE 5.8 mph - N/A   Clear
11:53 AM 55.9 °F - 37.9 °F 51% 30.31 in 10.0 mi SSE 5.8 mph - N/A   Clear
12:53 PM 62.1 °F - 42.1 °F 48% 30.27 in 10.0 mi SSE 6.9 mph - N/A   Clear
1:53 PM 64.9 °F - 42.1 °F 43% 30.24 in 10.0 mi South 8.1 mph - N/A   Clear
2:53 PM 66.9 °F - 42.1 °F 40% 30.20 in 10.0 mi South 6.9 mph - N/A   Clear
3:53 PM 68.0 °F - 42.1 °F 39% 30.17 in 10.0 mi South 10.4 mph 16.1 mph N/A   Clear
4:53 PM 66.9 °F - 43.0 °F 42% 30.15 in 10.0 mi South 4.6 mph - N/A   Partly Cloudy
5:53 PM 66.0 °F - 43.0 °F 43% 30.13 in 10.0 mi SSE 6.9 mph - N/A   Clear
6:53 PM 64.9 °F - 43.0 °F 45% 30.12 in 10.0 mi South 9.2 mph - N/A   Clear
8:53 PM 64.9 °F - 45.0 °F 48% 30.09 in 10.0 mi South 6.9 mph - N/A   Clear
10:53 PM 64.9 °F - 48.9 °F 56% 30.06 in 10.0 mi Variable 6.9 mph - 0.00 in Rain Light Rain